| time (UTC) | temp F | wind direction | speed MPH | gust MPH | rain 1hr in | rain 24hr in | rain mn in | humidity % | barometer mb |
| 20260505090003 | 43 | 130 | 0.0 | 2.0 | 0.00 | 0.00 | 0.00 | 67 | 1015.0 |
| 20260505085617 | 43 | 166 | 0.0 | 2.0 | 0.00 | 0.00 | 0.00 | 66 | 1015.2 |
| 20260505084503 | 43 | 179 | 0.0 | 1.0 | 0.00 | 0.00 | 0.00 | 65 | 1014.9 |
| 20260505083603 | 44 | 180 | 0.0 | 1.0 | 0.00 | 0.00 | 0.00 | 64 | 1014.9 |
| 20260505082703 | 44 | 166 | 0.0 | 1.0 | 0.00 | 0.00 | 0.00 | 63 | 1014.9 |
| 20260505081803 | 45 | 157 | 0.0 | 2.0 | 0.00 | 0.00 | 0.00 | 62 | 1014.7 |
| 20260505081118 | 45 | 175 | 0.0 | 2.0 | 0.00 | 0.00 | 0.00 | 62 | 1014.8 |
| 20260505080003 | 45 | 135 | 0.0 | 1.0 | 0.00 | 0.00 | 0.00 | 61 | 1014.9 |
| 20260505075403 | 46 | 159 | 0.0 | 2.0 | 0.00 | 0.00 | 0.00 | 62 | 1014.9 |
| 20260505074503 | 46 | 149 | 0.0 | 2.0 | 0.00 | 0.00 | 0.00 | 59 | 1014.7 |
| 20260505073603 | 47 | 152 | 0.0 | 1.0 | 0.00 | 0.00 | 0.00 | 58 | 1014.8 |
| 20260505072703 | 48 | 157 | 0.0 | 2.0 | 0.00 | 0.00 | 0.00 | 57 | 1014.7 |
| 20260505071803 | 49 | 149 | 1.0 | 2.0 | 0.00 | 0.00 | 0.00 | 55 | 1014.3 |
| 20260505070903 | 49 | 104 | 1.0 | 4.0 | 0.00 | 0.00 | 0.00 | 54 | 1014.4 |
| 20260505070003 | 49 | 20 | 1.0 | 3.0 | 0.00 | 0.00 | 0.00 | 54 | 1014.3 |
| 20260505065403 | 49 | 25 | 1.0 | 2.0 | 0.00 | 0.00 | 0.00 | 54 | 1014.6 |
| 20260505064503 | 49 | 14 | 1.0 | 2.0 | 0.00 | 0.00 | 0.00 | 55 | 1014.3 |
| 20260505063603 | 49 | 14 | 2.0 | 3.0 | 0.00 | 0.00 | 0.00 | 55 | 1014.2 |
| 20260505062703 | 49 | 13 | 1.0 | 2.0 | 0.00 | 0.00 | 0.00 | 55 | 1014.3 |
| 20260505061803 | 49 | 12 | 1.0 | 2.0 | 0.00 | 0.00 | 0.00 | 55 | 1014.4 |
| 20260505060903 | 50 | 16 | 1.0 | 2.0 | 0.00 | 0.00 | 0.00 | 55 | 1014.2 |
| 20260505060003 | 50 | 16 | 1.0 | 2.0 | 0.00 | 0.00 | 0.00 | 55 | 1014.0 |
| 20260505055403 | 50 | 34 | 0.0 | 2.0 | 0.00 | 0.00 | 0.00 | 55 | 1014.2 |
| 20260505054503 | 50 | 22 | 1.0 | 2.0 | 0.00 | 0.00 | 0.00 | 54 | 1014.0 |
| 20260505053603 | 51 | 21 | 1.0 | 2.0 | 0.00 | 0.00 | 0.00 | 54 | 1014.2 |
| 20260505052703 | 51 | 25 | 1.0 | 2.0 | 0.00 | 0.00 | 0.00 | 54 | 1014.1 |
| 20260505051803 | 51 | 17 | 1.0 | 2.0 | 0.00 | 0.00 | 0.00 | 54 | 1013.7 |
| 20260505050903 | 51 | 32 | 1.0 | 2.0 | 0.00 | 0.00 | 0.00 | 54 | 1013.8 |
| 20260505040903 | 53 | 355 | 2.0 | 4.0 | 0.00 | 0.00 | 0.00 | 53 | 1013.4 |
| 20260505040003 | 54 | 356 | 1.0 | 3.0 | 0.00 | 0.00 | 0.00 | 53 | 1013.3 |
| 20260505035618 | 54 | 358 | 1.0 | 3.0 | 0.00 | 0.00 | 0.00 | 52 | 1013.0 |
| 20260505034503 | 55 | 3 | 1.0 | 2.0 | 0.00 | 0.00 | 0.00 | 50 | 1013.0 |
| 20260505033603 | 56 | 2 | 1.0 | 2.0 | 0.00 | 0.00 | 0.00 | 50 | 1013.1 |
| 20260505032703 | 57 | 1 | 0.0 | 3.0 | 0.00 | 0.00 | 0.00 | 47 | 1013.3 |
| 20260505031803 | 59 | 2 | 0.0 | 2.0 | 0.00 | 0.00 | 0.00 | 45 | 1013.1 |
| 20260505030903 | 60 | 3 | 0.0 | 2.0 | 0.00 | 0.00 | 0.00 | 43 | 1012.8 |
| 20260505030003 | 61 | 357 | 0.0 | 2.0 | 0.00 | 0.00 | 0.00 | 40 | 1013.0 |
| 20260505025403 | 62 | 26 | 0.0 | 3.0 | 0.00 | 0.00 | 0.00 | 39 | 1012.8 |
| 20260505024503 | 63 | 6 | 1.0 | 5.0 | 0.00 | 0.00 | 0.00 | 38 | 1012.6 |
| 20260505023603 | 63 | 339 | 1.0 | 5.0 | 0.00 | 0.00 | 0.00 | 38 | 1012.6 |
| 20260505022703 | 64 | 314 | 1.0 | 4.0 | 0.00 | 0.00 | 0.00 | 37 | 1012.9 |
| 20260505022017 | 64 | 2 | 2.0 | 9.0 | 0.00 | 0.00 | 0.00 | 36 | 1012.9 |
| 20260505020903 | 65 | 354 | 2.0 | 10.0 | 0.00 | 0.00 | 0.00 | 34 | 1013.0 |
| 20260505020003 | 65 | 360 | 2.0 | 8.0 | 0.00 | 0.00 | 0.00 | 35 | 1013.1 |
| 20260505015403 | 65 | 6 | 2.0 | 7.0 | 0.00 | 0.00 | 0.00 | 34 | 1013.0 |
| 20260505014718 | 65 | 345 | 2.0 | 7.0 | 0.00 | 0.00 | 0.00 | 34 | 1012.9 |
| 20260505013603 | 66 | 7 | 2.0 | 11.0 | 0.00 | 0.00 | 0.00 | 34 | 1013.1 |
| 20260505012703 | 66 | 11 | 3.0 | 9.0 | 0.00 | 0.00 | 0.00 | 34 | 1012.6 |
| 20260505011803 | 66 | 355 | 2.0 | 10.0 | 0.00 | 0.00 | 0.00 | 34 | 1013.0 |
| 20260505011117 | 66 | 5 | 3.0 | 10.0 | 0.00 | 0.00 | 0.00 | 33 | 1013.0 |
| 20260505010003 | 67 | 345 | 2.0 | 8.0 | 0.00 | 0.00 | 0.00 | 33 | 1012.9 |
| 20260505005617 | 67 | 360 | 3.0 | 11.0 | 0.00 | 0.00 | 0.00 | 33 | 1012.8 |
| 20260505004503 | 67 | 6 | 2.0 | 9.0 | 0.00 | 0.00 | 0.00 | 32 | 1013.0 |
| 20260505003603 | 68 | 340 | 2.0 | 13.0 | 0.00 | 0.00 | 0.00 | 32 | 1013.0 |
| 20260505002703 | 68 | 273 | 1.0 | 4.0 | 0.00 | 0.00 | 0.00 | 33 | 1013.1 |
| 20260505001803 | 67 | 278 | 1.0 | 4.0 | 0.00 | 0.00 | 0.00 | 32 | 1012.9 |
| 20260505000903 | 68 | 284 | 2.0 | 6.0 | 0.00 | 0.00 | 0.00 | 33 | 1013.2 |
| 20260505000218 | 68 | 289 | 2.0 | 6.0 | 0.00 | 0.00 | 0.00 | 33 | 1012.9 |
| 20260504235403 | 67 | 301 | 2.0 | 12.0 | 0.00 | 0.00 | 0.00 | 33 | 1013.2 |
| 20260504234503 | 67 | 40 | 2.0 | 12.0 | 0.00 | 0.00 | 0.00 | 32 | 1013.2 |
| 20260504233603 | 68 | 294 | 1.0 | 4.0 | 0.00 | 0.00 | 0.00 | 32 | 1013.2 |
| 20260504232703 | 68 | 356 | 2.0 | 9.0 | 0.00 | 0.00 | 0.00 | 33 | 1013.2 |
| 20260504231803 | 68 | 352 | 3.0 | 17.0 | 0.00 | 0.00 | 0.00 | 33 | 1013.4 |
| 20260504230903 | 67 | 7 | 2.0 | 7.0 | 0.00 | 0.00 | 0.00 | 34 | 1013.3 |
| 20260504230003 | 66 | 218 | 1.0 | 4.0 | 0.00 | 0.00 | 0.00 | 34 | 1013.5 |
| 20260504225403 | 67 | 338 | 2.0 | 9.0 | 0.00 | 0.00 | 0.00 | 34 | 1013.5 |
| 20260504224503 | 68 | 353 | 2.0 | 6.0 | 0.00 | 0.00 | 0.00 | 33 | 1013.3 |
| 20260504223603 | 68 | 14 | 4.0 | 12.0 | 0.00 | 0.00 | 0.00 | 33 | 1013.4 |
| 20260504222703 | 69 | 328 | 2.0 | 9.0 | 0.00 | 0.00 | 0.00 | 33 | 1013.7 |
| 20260504221803 | 69 | 339 | 2.0 | 9.0 | 0.00 | 0.00 | 0.00 | 32 | 1013.5 |
| 20260504220903 | 68 | 324 | 2.0 | 9.0 | 0.00 | 0.00 | 0.00 | 33 | 1013.8 |
| 20260504220003 | 69 | 13 | 3.0 | 9.0 | 0.00 | 0.00 | 0.00 | 32 | 1013.7 |
| 20260504215403 | 69 | 329 | 2.0 | 8.0 | 0.00 | 0.00 | 0.00 | 32 | 1013.9 |
| 20260504214503 | 68 | 303 | 2.0 | 5.0 | 0.00 | 0.00 | 0.00 | 34 | 1014.0 |
| 20260504213603 | 67 | 360 | 3.0 | 12.0 | 0.00 | 0.00 | 0.00 | 35 | 1013.8 |
| 20260504212703 | 67 | 23 | 3.0 | 12.0 | 0.00 | 0.00 | 0.00 | 32 | 1013.9 |
| 20260504211803 | 67 | 111 | 3.0 | 9.0 | 0.00 | 0.00 | 0.00 | 33 | 1013.9 |
| 20260504210903 | 67 | 19 | 4.0 | 11.0 | 0.00 | 0.00 | 0.00 | 34 | 1014.1 |
| 20260504210004 | 67 | 12 | 3.0 | 11.0 | 0.00 | 0.00 | 0.00 | 35 | 1013.8 |
| 20260504205403 | 67 | 279 | 2.0 | 9.0 | 0.00 | 0.00 | 0.00 | 34 | 1013.9 |
| 20260504204503 | 67 | 43 | 3.0 | 10.0 | 0.00 | 0.00 | 0.00 | 34 | 1014.0 |
| 20260504203603 | 67 | 18 | 3.0 | 15.0 | 0.00 | 0.00 | 0.00 | 34 | 1014.2 |
| 20260504202703 | 67 | 360 | 2.0 | 9.0 | 0.00 | 0.00 | 0.00 | 34 | 1014.3 |
| 20260504201803 | 67 | 26 | 3.0 | 10.0 | 0.00 | 0.00 | 0.00 | 35 | 1014.0 |
| 20260504200903 | 67 | 358 | 3.0 | 11.0 | 0.00 | 0.00 | 0.00 | 36 | 1014.3 |
| 20260504200003 | 67 | 11 | 2.0 | 7.0 | 0.00 | 0.00 | 0.00 | 36 | 1014.4 |
| 20260504195616 | 66 | 18 | 2.0 | 8.0 | 0.00 | 0.00 | 0.00 | 36 | 1014.7 |
| 20260504194503 | 66 | 1 | 3.0 | 10.0 | 0.00 | 0.00 | 0.00 | 36 | 1014.4 |
| 20260504193603 | 65 | 2 | 3.0 | 11.0 | 0.00 | 0.00 | 0.00 | 37 | 1014.3 |
| 20260504192916 | 65 | 10 | 3.0 | 11.0 | 0.00 | 0.00 | 0.00 | 36 | 1014.2 |
| 20260504192018 | 65 | 6 | 3.0 | 12.0 | 0.00 | 0.00 | 0.00 | 38 | 1014.4 |
| 20260504190903 | 65 | 14 | 3.0 | 11.0 | 0.00 | 0.00 | 0.00 | 35 | 1014.6 |
| 20260504190003 | 65 | 13 | 3.0 | 8.0 | 0.00 | 0.00 | 0.00 | 37 | 1014.6 |
| 20260504185618 | 64 | 1 | 3.0 | 11.0 | 0.00 | 0.00 | 0.00 | 38 | 1014.7 |
| 20260504184718 | 64 | 312 | 3.0 | 11.0 | 0.00 | 0.00 | 0.00 | 36 | 1014.4 |
| 20260504183817 | 64 | 5 | 2.0 | 9.0 | 0.00 | 0.00 | 0.00 | 37 | 1014.6 |
| 20260504182918 | 64 | 9 | 2.0 | 15.0 | 0.00 | 0.00 | 0.00 | 38 | 1014.3 |
| 20260504181803 | 63 | 357 | 3.0 | 11.0 | 0.00 | 0.00 | 0.00 | 38 | 1014.7 |
| 20260504180903 | 63 | 9 | 5.0 | 18.0 | 0.00 | 0.00 | 0.00 | 37 | 1014.4 |
| 20260504180003 | 63 | 351 | 3.0 | 14.0 | 0.00 | 0.00 | 0.00 | 37 | 1014.6 |
| 20260504175618 | 63 | 353 | 2.0 | 14.0 | 0.00 | 0.00 | 0.00 | 39 | 1014.6 |
| 20260504174717 | 62 | 259 | 2.0 | 6.0 | 0.00 | 0.00 | 0.00 | 41 | 1014.7 |
| 20260504173603 | 62 | 340 | 3.0 | 11.0 | 0.00 | 0.00 | 0.00 | 41 | 1014.7 |
| 20260504172703 | 62 | 325 | 2.0 | 10.0 | 0.00 | 0.00 | 0.00 | 42 | 1014.8 |
| 20260504171803 | 61 | 336 | 2.0 | 7.0 | 0.00 | 0.00 | 0.00 | 45 | 1014.8 |
| 20260504170903 | 60 | 247 | 1.0 | 4.0 | 0.00 | 0.00 | 0.00 | 49 | 1014.6 |
| 20260504150903 | 52 | 283 | 1.0 | 5.0 | 0.00 | 0.00 | 0.00 | 59 | 1015.1 |
| 20260504140903 | 47 | 282 | 0.0 | 3.0 | 0.00 | 0.00 | 0.00 | 73 | 1015.1 |